This is the latest recevied weather packets stored in our database for station/object KE0TNI-13. If no packets are shown the sender has not sent any weather packets the latest 10 day(s).
| Time | Temp. | Humidity | Pressure | Rain* | Wind** | Luminosity | Snow |
|---|---|---|---|---|---|---|---|
| 1777900767 | 8.33° C | 34% | 1016.1 hPa | 0 mm | - | 27 W/m² | - |
| 1777900464 | 8.89° C | 33% | 1016.3 hPa | 0 mm | - | 28 W/m² | - |
| 1777900161 | 8.33° C | 33% | 1016.3 hPa | 0 mm | - | 30 W/m² | - |
| 1777899858 | 8.89° C | 33% | 1015.9 hPa | 0 mm | - | 31 W/m² | - |
| 1777899554 | 8.89° C | 32% | 1016.2 hPa | 0 mm | - | 33 W/m² | - |
| 1777899252 | 8.33° C | 33% | 1016.3 hPa | 0 mm | - | 35 W/m² | - |
| 1777898949 | 8.33° C | 33% | 1016.2 hPa | 0 mm | - | 31 W/m² | - |
| 1777898646 | 8.33° C | 32% | 1016.1 hPa | 0 mm | - | 27 W/m² | - |
| 1777898344 | 8.33° C | 32% | 1016.3 hPa | 0 mm | - | 19 W/m² | - |
| 1777898041 | 8.33° C | 32% | 1016.2 hPa | 0 mm | - | 16 W/m² | - |
| 1777897737 | 7.78° C | 32% | 1016.1 hPa | 0 mm | - | 13 W/m² | - |
| 1777897434 | 7.78° C | 33% | 1016.2 hPa | 0 mm | - | 9 W/m² | - |
| 1777897129 | 7.22° C | 35% | 1016.3 hPa | 0 mm | - | 7 W/m² | - |
| 1777896826 | 7.22° C | 37% | 1016.2 hPa | 0 mm | - | 4 W/m² | - |
| 1777896523 | 6.67° C | 37% | 1015.8 hPa | 0 mm | - | 3 W/m² | - |
| 1777896221 | 6.67° C | 36% | 1016.1 hPa | 0 mm | - | 2 W/m² | - |
| 1777895918 | 6.67° C | 37% | 1015.8 hPa | 0 mm | - | 1 W/m² | - |
| 1777895616 | 6.11° C | 38% | 1016.1 hPa | 0 mm | - | 1 W/m² | - |
| 1777895313 | 5.56° C | 40% | 1015.8 hPa | 0 mm | - | 0 W/m² | - |
| 1777895011 | 5.56° C | 39% | 1015.7 hPa | 0 mm | - | 0 W/m² | - |
| 1777894708 | 5.56° C | 40% | 1015.9 hPa | 0 mm | - | 0 W/m² | - |
| 1777894404 | 5.56° C | 39% | 1015.8 hPa | 0 mm | - | 0 W/m² | - |
| 1777894102 | 5° C | 40% | 1015.9 hPa | 0 mm | - | 0 W/m² | - |
| 1777893799 | 5° C | 45% | 1015.9 hPa | 0 mm | - | 0 W/m² | - |
| 1777893495 | 4.44° C | 47% | 1015.7 hPa | 0 mm | - | 0 W/m² | - |
* Rain latest hour (hover to see other rain measurements)
** Current wind speed in m/s (hover to see current wind gust speed)